This demonstration page uses our WeatherBlox Daily Observations layout. Learn more.

Left ArrowRight Arrow

34.74481, -87.66753

Hourly Observations for October 9, 2019

Temp ( °F °C ) Dew Point ( °F °C ) Humidity (%) Winds ( mph kmh ) Pressure ( in mb ) Visibility ( mi km ) Precip ( " mm )
12:53 am 00:53 Clear 58 14.4 55 12.8 90 90 Calm 30.05 1018 10 16 0.00 0.00
1:53 am 01:53 Clear 57 13.9 55 12.8 93 93 Calm 30.05 1018 7 11 0.00 0.00
2:11 am 02:11 Clear with Mist and Fog 56 13.3 54 12.2 93 93 Calm 30.06 1018 2 3 0.00 0.00
2:25 am 02:25 Clear with Mist and Fog 56 13.3 55 12.8 97 97 Calm 30.06 1018 4 6 0.00 0.00
2:53 am 02:53 Clear with Mist and Fog 56 13.3 54 12.2 93 93 Calm 30.04 1017 2 3 0.00 0.00
3:05 am 03:05 Clear with Mist and Fog 56 13.3 54 12.2 93 93 Calm 30.05 1018 6 10 0.00 0.00
3:14 am 03:14 Mostly Clear with Mist and Fog 56 13.3 54 12.2 93 93 Calm 30.05 1018 2 3 0.00 0.00
3:18 am 03:18 Mostly Cloudy with Mist and Fog 56 13.3 54 12.2 93 93 Calm 30.05 1018 1 2 0.00 0.00
3:24 am 03:24 Mostly Cloudy with Mist and Fog 56 13.3 54 12.2 93 93 Calm 30.05 1018 1 1 0.00 0.00
3:31 am 03:31 Mostly Cloudy with Mist and Fog 56 13.3 54 12.2 93 93 Calm 30.05 1018 2 3 0.00 0.00
3:39 am 03:39 Cloudy with Mist and Fog 56 13.3 54 12.2 93 93 Calm 30.05 1018 2 2 0.00 0.00
3:53 am 03:53 Cloudy with Mist and Fog 56 13.3 54 12.2 93 93 Calm 30.04 1017 1 2 0.00 0.00
4:01 am 04:01 Mostly Cloudy with Mist and Fog 55 12.8 54 12.2 96 96 Calm 30.05 1018 1 1 0.00 0.00
4:08 am 04:08 Mostly Cloudy with Fog 56 13.3 54 12.2 93 93 Calm 30.06 1018 1 1 0.00 0.00
4:18 am 04:18 Mostly Cloudy with Mist and Fog 56 13.3 53 11.7 90 90 Calm 30.06 1018 1 2 0.00 0.00
4:25 am 04:25 Mostly Clear with Mist and Fog 55 12.8 53 11.7 93 93 Calm 30.06 1018 2 3 0.00 0.00
4:38 am 04:38 Clear with Mist and Fog 55 12.8 53 11.7 93 93 Calm 30.06 1018 1 1 0.00 0.00
4:53 am 04:53 Clear with Fog 55 12.8 53 11.7 93 93 Calm 30.05 1018 1 1 0.00 0.00
4:58 am 04:58 Mostly Cloudy with Mist and Fog 55 12.8 53 11.7 93 93 Calm 30.07 1018 1 1 0.00 0.00
5:00 am 05:00 Mostly Clear with Mist and Fog 55 12.8 53 11.7 93 93 Calm 30.07 1018 1 2 0.00 0.00
5:04 am 05:04 Partly Cloudy with Mist and Fog 54 12.2 52 11.1 93 93 Calm 30.07 1018 4 6 0.00 0.00
5:12 am 05:12 Mostly Cloudy 54 12.2 52 11.1 93 93 Calm 30.07 1018 10 16 0.00 0.00
5:21 am 05:21 Cloudy with Mist and Fog 55 12.8 53 11.7 93 93 Calm 30.07 1018 2 3 0.00 0.00
5:29 am 05:29 Mostly Cloudy with Fog 55 12.8 53 11.7 93 93 Calm 30.07 1018 0 0 0.00 0.00
5:41 am 05:41 Mostly Cloudy with Fog 56 13.3 53 11.7 90 90 Calm 30.07 1018 0 0 0.00 0.00
5:53 am 05:53 Mostly Cloudy with Fog 55 12.8 53 11.7 93 93 Calm 30.07 1018 0 0 0.00 0.00
6:17 am 06:17 Cloudy with Mist and Fog 56 13.3 54 12.2 93 93 Calm 30.08 1019 1 1 0.00 0.00
6:24 am 06:24 Cloudy with Mist and Fog 56 13.3 54 12.2 93 93 Calm 30.09 1019 1 2 0.00 0.00
6:32 am 06:32 Cloudy with Fog 56 13.3 54 12.2 93 93 Calm 30.09 1019 1 1 0.00 0.00
6:53 am 06:53 Mostly Cloudy with Fog 56 13.3 55 12.8 97 97 Calm 30.08 1019 0 0 0.00 0.00
7:53 am 07:53 Mostly Cloudy with Fog 58 14.4 57 13.9 97 97 Calm 30.09 1019 5 8 0.00 0.00
8:53 am 08:53 Mostly Cloudy with Fog 62 16.7 60 15.6 93 93 E 3 6 30.10 1019 1 1 0.00 0.00
8:59 am 08:59 Cloudy with Mist and Fog 62 16.7 60 15.6 93 93 E 3 6 30.10 1019 2 3 0.00 0.00
9:06 am 09:06 Cloudy with Mist and Fog 63 17.2 61 16.1 93 93 E 5 7 30.10 1019 6 10 0.00 0.00
9:27 am 09:27 Cloudy with Mist and Fog 64 17.8 63 17.2 96 96 ESE 7 11 30.10 1019 2 3 0.00 0.00
9:46 am 09:46 Cloudy with Mist and Fog 65 18.3 63 17.2 93 93 SSE 7 11 30.11 1020 3 5 0.00 0.00
9:53 am 09:53 Cloudy with Mist and Fog 65 18.3 63 17.2 93 93 SE 8 13 30.11 1020 4 6 0.00 0.00
10:53 am 10:53 Cloudy 66 18.9 64 17.8 93 93 SE 7 11 30.11 1020 7 11 0.00 0.00
11:11 am 11:11 Cloudy 67 19.4 64 17.8 91 91 SE 7 11 30.10 1019 8 13 0.00 0.00
11:53 am 11:53 Mostly Cloudy 72 22.2 64 17.8 76 76 SSE 3 6 30.09 1019 10 16 0.00 0.00
12:01 pm 12:01 Partly Cloudy 73 22.8 64 17.8 74 74 VRB 5 7 30.08 1019 10 16 0.00 0.00
12:53 pm 12:53 Sunny 79 26.1 63 17.2 58 58 Calm 30.06 1018 10 16 0.00 0.00
1:53 pm 13:53 Mostly Sunny 83 28.3 61 16.1 48 48 Calm 30.02 1017 10 16 0.00 0.00
2:53 pm 14:53 Mostly Cloudy 85 29.4 61 16.1 45 45 VRB 5 7 30.00 1016 10 16 0.00 0.00
3:53 pm 15:53 Mostly Sunny 85 29.4 57 13.9 39 39 Calm 29.99 1016 10 16 0.00 0.00
4:53 pm 16:53 Sunny 82 27.8 62 16.7 51 51 Calm 29.99 1016 10 16 0.00 0.00
5:53 pm 17:53 Sunny 81 27.2 61 16.1 51 51 Calm 29.99 1016 10 16 0.00 0.00
6:53 pm 18:53 Clear 73 22.8 63 17.2 71 71 Calm 30.00 1016 10 16 0.00 0.00
7:53 pm 19:53 Clear 69 20.6 64 17.8 84 84 Calm 30.02 1017 10 16 0.00 0.00
8:53 pm 20:53 Mostly Cloudy 69 20.6 63 17.2 81 81 ESE 8 13 30.04 1017 10 16 0.00 0.00
9:53 pm 21:53 Mostly Clear 70 21.1 63 17.2 79 79 SE 5 7 30.05 1018 10 16 0.00 0.00
10:53 pm 22:53 Clear 68 20 63 17.2 84 84 ESE 3 6 30.06 1018 10 16 0.00 0.00
11:53 pm 23:53 Clear 67 19.4 63 17.2 87 87 ESE 5 7 30.06 1018 10 16 0.00 0.00

Powered by AerisWeather